Location: Waco, TX
(31.5480°N, 97.1670°W)
Time: 23:57:19
(UTC-05:00)

ISS - Pass Details

Date: 25 May 2018
Orbit: 402 x 407 km, 51.6° (Epoch: 21 May)

Event Time Altitude Azimuth Distance (km) Brightness Sun altitude
Rises 02:51:55 0° 332° (NNW) 2,314 - -33.6°
Reaches altitude 10° 02:54:42 10° 358° (N) 1,453 - -33.3°
Maximum altitude 02:56:36 15° 34° (NE) 1,208 - -33.1°
Drops below altitude 10° 02:58:30 10° 70° (ENE) 1,449 - -33.0°
Sets 03:01:16 0° 96° (E) 2,305 - -32.7°
